Hourly Weather Ludmierzyce

Today, 18 May, Tuesday

Time Temperature Precipitation Wind Pressure Humidity
00:00 +9°C° 0.1 mm 3 mps 728 mmHg 92%
01:00 +9°C° 0.1 mm 3 mps 728 mmHg 91%
02:00 +9°C° 0 mm 3 mps 729 mmHg 91%
03:00 +8°C° 0 mm 3 mps 729 mmHg 91%
04:00 +8°C° 0 mm 3 mps 729 mmHg 91%
05:00 +8°C° 0 mm 4 mps 730 mmHg 89%
06:00 +10°C° 0 mm 4 mps 730 mmHg 86%
07:00 +10°C° 0 mm 4 mps 730 mmHg 83%
08:00 +11°C° 0.1 mm 4 mps 730 mmHg 80%
09:00 +12°C° 0.1 mm 5 mps 731 mmHg 77%
10:00 +12°C° 0.1 mm 5 mps 731 mmHg 73%
11:00 +13°C° 0.2 mm 6 mps 731 mmHg 71%
12:00 +14°C° 0.2 mm 6 mps 731 mmHg 69%
13:00 +14°C° 0.2 mm 6 mps 731 mmHg 67%
14:00 +14°C° 0.1 mm 5 mps 731 mmHg 66%
15:00 +15°C° 0.1 mm 5 mps 731 mmHg 66%
16:00 +15°C° 0.1 mm 4 mps 731 mmHg 65%
17:00 +13°C° 0.2 mm 4 mps 731 mmHg 72%
18:00 +12°C° 0.2 mm 3 mps 731 mmHg 78%
19:00 +12°C° 0.2 mm 2 mps 732 mmHg 85%
20:00 +10°C° 0 mm 2 mps 732 mmHg 87%
21:00 +9°C° 0 mm 2 mps 732 mmHg 89%
22:00 +8°C° 0 mm 2 mps 732 mmHg 91%
23:00 +8°C° 0.1 mm 2 mps 732 mmHg 91%

Tomorrow, 19 May, Wednesday

Time Temperature Precipitation Wind Pressure Humidity
00:00 +8°C° 0.1 mm 2 mps 732 mmHg 91%
01:00 +8°C° 0.1 mm 2 mps 733 mmHg 91%
02:00 +9°C° 0.1 mm 1 mps 733 mmHg 92%
03:00 +8°C° 0.1 mm 1 mps 733 mmHg 92%
04:00 +8°C° 0.1 mm 1 mps 733 mmHg 92%
05:00 +9°C° 0 mm 1 mps 733 mmHg 89%
06:00 +10°C° 0 mm 1 mps 733 mmHg 86%
07:00 +11°C° 0 mm 1 mps 733 mmHg 83%
08:00 +12°C° 0.3 mm 2 mps 734 mmHg 80%
09:00 +12°C° 0.3 mm 2 mps 734 mmHg 76%
10:00 +13°C° 0.3 mm 2 mps 734 mmHg 73%
11:00 +12°C° 0.4 mm 3 mps 734 mmHg 73%
12:00 +12°C° 0.4 mm 3 mps 733 mmHg 74%
13:00 +12°C° 0.4 mm 3 mps 733 mmHg 75%
14:00 +12°C° 0.4 mm 3 mps 733 mmHg 76%
15:00 +12°C° 0.4 mm 4 mps 734 mmHg 78%
16:00 +12°C° 0.4 mm 4 mps 734 mmHg 80%
17:00 +11°C° 0.2 mm 4 mps 734 mmHg 83%
18:00 +10°C° 0.2 mm 4 mps 734 mmHg 85%
19:00 +8°C° 0.2 mm 4 mps 734 mmHg 88%
20:00 +8°C° 0 mm 3 mps 734 mmHg 90%
21:00 +8°C° 0 mm 3 mps 734 mmHg 91%
22:00 +7°C° 0 mm 2 mps 735 mmHg 93%
23:00 +7°C° 0 mm 2 mps 735 mmHg 92%

Day after tomorrow, 20 May, Thursday

Time Temperature Precipitation Wind Pressure Humidity
00:00 +7°C° 0 mm 2 mps 735 mmHg 91%
01:00 +7°C° 0 mm 2 mps 735 mmHg 89%
02:00 +7°C° 0 mm 3 mps 735 mmHg 89%
03:00 +7°C° 0 mm 3 mps 735 mmHg 89%
04:00 +7°C° 0 mm 3 mps 735 mmHg 89%
05:00 +7°C° 0 mm 3 mps 735 mmHg 89%
06:00 +6°C° 0 mm 4 mps 736 mmHg 89%
07:00 +7°C° 0 mm 4 mps 736 mmHg 88%
08:00 +8°C° 0 mm 4 mps 736 mmHg 83%
09:00 +9°C° 0 mm 5 mps 736 mmHg 77%
10:00 +12°C° 0 mm 5 mps 737 mmHg 71%
11:00 +13°C° 0.1 mm 5 mps 736 mmHg 67%
12:00 +13°C° 0.1 mm 5 mps 736 mmHg 63%
13:00 +14°C° 0.1 mm 5 mps 736 mmHg 59%
14:00 +14°C° 0.3 mm 6 mps 737 mmHg 65%
15:00 +13°C° 0.3 mm 6 mps 737 mmHg 71%
16:00 +11°C° 0.3 mm 6 mps 737 mmHg 77%
17:00 +12°C° 0.1 mm 5 mps 737 mmHg 78%
18:00 +10°C° 0.1 mm 5 mps 737 mmHg 80%
19:00 +10°C° 0.1 mm 4 mps 738 mmHg 82%
20:00 +9°C° 0 mm 3 mps 738 mmHg 84%
21:00 +8°C° 0 mm 3 mps 738 mmHg 87%
22:00 +7°C° 0 mm 2 mps 739 mmHg 90%
23:00 +6°C° 0 mm 2 mps 739 mmHg 90%

21 May, Friday

Time Temperature Precipitation Wind Pressure Humidity
00:00 +6°C° 0 mm 2 mps 739 mmHg 90%
01:00 +6°C° 0 mm 2 mps 739 mmHg 91%
02:00 +6°C° 0 mm 1 mps 739 mmHg 91%
03:00 +6°C° 0 mm 1 mps 739 mmHg 91%
04:00 +6°C° 0 mm 1 mps 739 mmHg 90%
05:00 +7°C° 0 mm 1 mps 739 mmHg 86%
06:00 +9°C° 0 mm 1 mps 739 mmHg 82%
07:00 +11°C° 0 mm 1 mps 739 mmHg 78%
08:00 +12°C° 0.1 mm 1 mps 739 mmHg 73%
09:00 +13°C° 0.1 mm 2 mps 739 mmHg 68%
10:00 +14°C° 0.1 mm 2 mps 738 mmHg 63%
11:00 +15°C° 0.1 mm 2 mps 738 mmHg 61%
12:00 +15°C° 0.1 mm 2 mps 738 mmHg 58%
13:00 +16°C° 0.1 mm 2 mps 737 mmHg 55%
14:00 +16°C° 0 mm 2 mps 737 mmHg 55%
15:00 +17°C° 0 mm 2 mps 736 mmHg 56%
16:00 +17°C° 0 mm 2 mps 736 mmHg 56%
17:00 +16°C° 0 mm 2 mps 736 mmHg 63%
18:00 +14°C° 0 mm 2 mps 735 mmHg 69%
19:00 +13°C° 0 mm 2 mps 735 mmHg 76%
20:00 +12°C° 0 mm 2 mps 735 mmHg 77%
21:00 +11°C° 0 mm 3 mps 734 mmHg 77%
22:00 +10°C° 0 mm 3 mps 734 mmHg 78%
23:00 +10°C° 0 mm 3 mps 734 mmHg 78%

22 May, Saturday

Time Temperature Precipitation Wind Pressure Humidity
00:00 +9°C° 0 mm 3 mps 733 mmHg 78%
01:00 +9°C° 0 mm 3 mps 733 mmHg 78%
02:00 +9°C° 0 mm 3 mps 733 mmHg 76%
03:00 +8°C° 0 mm 4 mps 732 mmHg 74%
04:00 +8°C° 0 mm 4 mps 732 mmHg 72%
05:00 +10°C° 0 mm 4 mps 732 mmHg 72%
06:00 +10°C° 0 mm 5 mps 732 mmHg 72%
07:00 +12°C° 0 mm 5 mps 732 mmHg 72%
08:00 +13°C° 0 mm 5 mps 732 mmHg 69%
09:00 +14°C° 0 mm 6 mps 732 mmHg 67%
10:00 +15°C° 0 mm 6 mps 732 mmHg 65%
11:00 +15°C° 0.1 mm 6 mps 732 mmHg 68%
12:00 +15°C° 0.1 mm 5 mps 732 mmHg 71%
13:00 +14°C° 0.1 mm 5 mps 732 mmHg 74%
14:00 +13°C° 0.6 mm 4 mps 732 mmHg 78%
15:00 +12°C° 0.6 mm 4 mps 732 mmHg 83%
16:00 +11°C° 0.6 mm 4 mps 732 mmHg 87%
17:00 +10°C° 0.2 mm 3 mps 732 mmHg 87%
18:00 +10°C° 0.2 mm 3 mps 732 mmHg 88%
19:00 +9°C° 0.2 mm 2 mps 732 mmHg 89%
20:00 +9°C° 0 mm 2 mps 733 mmHg 89%
21:00 +8°C° 0 mm 2 mps 733 mmHg 89%
22:00 +8°C° 0 mm 3 mps 733 mmHg 90%
23:00 +7°C° 0 mm 3 mps 733 mmHg 90%

23 May, Sunday

Time Temperature Precipitation Wind Pressure Humidity
00:00 +7°C° 0 mm 3 mps 733 mmHg 90%
01:00 +5°C° 0 mm 3 mps 733 mmHg 91%
02:00 +5°C° 0 mm 3 mps 733 mmHg 91%
03:00 +4°C° 0 mm 3 mps 733 mmHg 91%
04:00 +4°C° 0 mm 3 mps 733 mmHg 91%
05:00 +7°C° 0 mm 3 mps 733 mmHg 87%
06:00 +8°C° 0 mm 3 mps 733 mmHg 83%
07:00 +10°C° 0 mm 3 mps 733 mmHg 78%
08:00 +12°C° 0 mm 3 mps 733 mmHg 72%
09:00 +13°C° 0 mm 3 mps 733 mmHg 66%
10:00 +14°C° 0 mm 3 mps 733 mmHg 60%
11:00 +16°C° 0.2 mm 3 mps 733 mmHg 60%
12:00 +16°C° 0.2 mm 3 mps 733 mmHg 59%
13:00 +17°C° 0.2 mm 3 mps 733 mmHg 59%
14:00 +16°C° 0.5 mm 3 mps 733 mmHg 62%
15:00 +16°C° 0.5 mm 3 mps 733 mmHg 65%
16:00 +16°C° 0.5 mm 3 mps 733 mmHg 68%
17:00 +15°C° 0.5 mm 2 mps 734 mmHg 73%
18:00 +14°C° 0.5 mm 2 mps 734 mmHg 77%
19:00 +12°C° 0.5 mm 1 mps 734 mmHg 82%
20:00 +12°C° 0 mm 1 mps 735 mmHg 83%
21:00 +10°C° 0 mm 2 mps 735 mmHg 85%
22:00 +9°C° 0 mm 2 mps 736 mmHg 86%
23:00 +8°C° 0 mm 2 mps 736 mmHg 86%
Show more

We Need Your Consent

Meteoprog and our Service Providers may store and access personal data such as cookies, device identifiers or other similar technologies on your device and process such data to personalise content and ads, as well as provide social media features and to analyse the traffic.

  • Store and/or access information on your device

    Cookies, device identifiers or other information can be stored or accessed on your device for the purposes indicated above.

  • Personalised ads and content, ad and content measurement, audience insights, and products development

    Ads and content can be personalised based on a profile. More data can be added to better personalise ads and content. Ad and content performance can be measured. Insights about the audience who saw the ads and content can be derived. Such data can be used to develop or improve user’s experience, systems and software.

By clicking ‘I Agree’ you will allow the use of indicated cookies, device identifiers, web beacons or other similar technologies. Your settings can be changed in the browser on your device.

For certain purposes, legitimate interests may be relied on, rather than consent. You can read more about this in our Privacy and Cookie Policy.